Location: Newark
(7.0858°N, 171.3717°E)
Time: 23:07:44
(UTC+00:00)

SR - All Passes

Search period start: 25 November 2020 00:00
Search period end: 05 December 2020 00:00
Orbit: 579 x 876 km, 66.7° (Epoch: 25 November)

Date Brightness Start Highest point End Pass type
(mag) Time Alt. Az. Time Alt. Az. Time Alt. Az.
25 Nov - 06:01:50 10° S 06:05:38 32° ESE 06:09:24 10° NE daylight
25 Nov - 16:43:09 10° NE 16:45:41 13° ENE 16:48:15 10° E visible
25 Nov - 18:22:03 10° NW 18:27:38 51° WSW 18:33:21 10° S daylight
26 Nov - 05:15:05 10° ESE 05:16:01 11° ESE 05:16:58 10° E daylight
26 Nov - 06:54:08 10° SW 06:57:42 27° WNW 07:01:18 10° N visible
26 Nov - 17:32:16 10° NNW 17:37:59 68° ENE 17:43:51 10° SSE visible
27 Nov - 06:03:49 10° SSW 06:08:03 87° WNW 06:12:17 10° NNE daylight
27 Nov - 16:43:24 10° N 16:48:17 29° ENE 16:53:17 10° SE visible
27 Nov - 18:25:37 10° WNW 18:30:08 24° WSW 18:34:44 10° SSW daylight
28 Nov - 05:14:46 10° S 05:18:27 29° ESE 05:22:06 10° NE daylight
28 Nov - 07:00:03 10° WNW 07:00:15 10° WNW 07:00:28 10° WNW visible
28 Nov - 15:56:30 10° NE 15:58:31 12° ENE 16:00:34 10° E visible
28 Nov - 17:34:51 10° NNW 17:40:30 56° WSW 17:46:16 10° S visible
29 Nov - 06:06:49 10° SW 06:10:30 30° WNW 06:14:14 10° N daylight
29 Nov - 16:45:08 10° N 16:50:50 63° ENE 16:56:40 10° SSE visible
30 Nov - 05:16:38 10° SSW 05:20:52 84° ESE 05:25:06 10° NNE daylight
30 Nov - 15:56:22 10° NNE 16:01:08 27° ENE 16:06:00 10° SE visible
30 Nov - 17:38:16 10° NW 17:43:00 26° WSW 17:47:47 10° SSW visible
01 Dec - 04:27:43 10° SSE 04:31:16 26° ESE 04:34:47 10° NE daylight
01 Dec - 06:11:42 10° W 06:13:03 11° WNW 06:14:24 10° NW daylight
01 Dec - 15:10:04 10° NE 15:11:21 11° ENE 15:12:38 10° E visible
01 Dec - 16:47:38 10° NNW 16:53:20 61° WSW 16:59:09 10° S visible
02 Dec - 05:19:30 10° SW 05:23:19 33° WNW 05:27:09 10° N daylight
02 Dec - 15:58:00 10° N 16:03:41 58° ENE 16:09:28 10° SSE visible
02 Dec - 17:43:51 10° W 17:45:29 11° WSW 17:47:07 10° SW visible
03 Dec - 04:29:28 10° SSW 04:33:40 75° ESE 04:37:54 10° NNE daylight
03 Dec - 15:09:21 10° NNE 15:13:58 25° ENE 15:18:40 10° ESE visible
03 Dec - 16:50:58 10° NW 16:55:51 28° WSW 17:00:47 10° SSW visible
04 Dec - 03:40:41 10° SSE 03:44:03 23° ESE 03:47:27 10° NE daylight
04 Dec - 05:23:58 10° W 05:25:50 13° WNW 05:27:44 10° NW daylight
04 Dec - 16:00:26 10° NNW 16:06:12 66° WSW 16:12:02 10° S visible
